Terminal Aerodrome Forecast
Issued by NWS Boston, MA

Home | Current Version | Previous Version | Text Only | Print | Product List | Glossary On
Versions: 1 2 3 4 5 6 7 8 9 10 11 12 13 14 15 16 17 18 19 20 21 22 23 24 25 26 27 28 29 30 31 32 33 34 35 36 37 38 39 40 41 42 43 44 45
000
FTUS41 KBOX 032334
TAFPVD
TAF
KPVD 032334Z 0400/0424 VRB03KT P6SM BKN250
     FM040800 03006KT P6SM BKN080
     FM041100 03010G18KT P6SM BKN060
     FM041700 05014KT P6SM SCT050=

USA.gov is the U.S. government's official web portal to all federal, state and local government web resources and services.